BEESAT 9 (44412 NORAD) Tracking and Keplerian Element Data

This shows tracking and keplerian element data for the satellite.

Feedback or suggestion? Click here.




ElementValue
Catalog44412
NameBEESAT 9
Epoch Orbit1576
Epoch Day292.86305479
Epoch Year2019
RAAN252.8086
Inclination97.504
Eccentricity0.0021455
Argument of Perigee242.0628
Mean Anonmoly117.843
Mean Motion15.1188711
Decay Rate7.18E-06
L11 44412U 19038AC 19292.86305479 .00000718 00000-0 45588-4 0 9991
L22 44412 97.5040 252.8086 0021455 242.0628 117.8430 15.11887110 15760

Live tracking and technical data element details for BEESAT 9 (NORAD 44412). BEESAT 9 can be tracked NOW for your location showing map with azimuth and elevation plus other details from your city location.

Track the satellite on the map from your city or location and see movement details for azimuth, elevation, latitude, longitude, range, height, and movement on the map or in text.







IsCatalogInMostPopularTable: catalog: 44412, numindb: 19
Update: records affected: 1



GetName: 44412 BEESAT 9

Hit Count: updated at: Wed, 23 Oct 2019 00:59:45 GMT